Wind_Speed
25 28 30 31 31 32 33 36 31 35 32 28 26 34 33 30 35 37 40 38 39 35 30 28 29 23 22 18 20 21 22 21
23 24 28 32 32 34 36 39 38 37 38 31 27 30 36 37 35 35 42 33 34 32 30 30 32 27 23 24 22 22 21 24
26 25 28 34 35 35 38 42 43 43 43 36 31 23 34 37 36 35 38 32 34 34 31 29 31 26 26 27 27 27 26 22
32 29 27 31 37 37 39 42 42 45 45 40 30 23 27 30 35 31 35 36 35 36 30 31 30 27 29 30 31 29 26 22
36 33 31 32 35 35 37 41 42 44 48 43 34 35 33 33 38 35 38 40 37 36 33 32 33 28 29 29 28 24 20 21
35 35 35 32 33 34 37 41 44 44 46 40 39 37 35 33 32 38 39 40 35 36 35 34 34 32 29 29 28 27 24 19
29 33 33 35 33 35 37 39 42 44 47 42 42 41 38 36 36 36 42 42 41 39 36 37 35 36 29 29 30 29 26 21
39 28 29 30 33 37 42 46 45 46 43 48 42 44 42 40 40 40 41 43 46 43 41 40 41 39 33 31 29 28 28 24
41 38 30 26 29 36 38 46 48 45 44 46 45 44 44 41 43 43 41 43 48 47 45 39 39 39 37 34 32 31 27 27
43 42 36 34 32 37 43 41 50 54 45 48 51 47 47 45 42 44 43 43 41 44 48 45 42 38 38 37 36 32 29 27
48 42 39 36 32 26 42 42 45 50 51 47 51 49 46 46 42 46 44 42 40 42 46 48 44 40 37 38 34 33 31 29
43 42 36 30 30 24 36 40 42 45 49 50 49 53 46 43 44 45 43 43 43 40 43 47 44 44 41 39 38 36 34 30
42 40 35 29 25 17 22 36 38 38 47 47 47 44 51 44 43 40 43 40 41 42 42 40 44 42 42 41 40 38 33 32
42 38 40 38 32 16 18 23 38 34 40 43 44 44 43 49 45 44 39 40 38 42 39 40 39 39 39 41 42 40 38 34
39 39 46 44 41 32 11 3 30 31 37 36 41 41 44 48 43 42 40 41 40 39 41 39 39 39 39 39 38 38 37 35
44 49 50 45 50 47 27 9 16 26 35 29 37 33 35 37 44 41 40 38 40 40 39 39 38 36 38 39 38 37 38 37
52 51 51 54 53 50 45 28 9 23 23 30 32 25 32 38 42 44 42 40 39 37 36 37 36 38 38 39 40 40 39 40
49 52 52 50 53 50 50 45 26 10 18 22 24 29 34 37 37 38 39 42 42 41 37 34 34 36 38 38 37 36 35 33
46 45 52 56 52 42 50 53 46 31 16 12 29 32 32 31 34 33 36 37 42 41 40 40 37 37 36 36 35 32 30 31
Wind_Direction
233 227 222 214 209 204 202 199 200 189 197 196 201 201 196 193 200 199 187 183 176 169 178 182 177 182 183 178 186 180 186 181
246 228 220 213 208 202 202 203 195 190 190 192 198 206 203 195 202 195 191 185 182 169 181 186 178 183 185 194 193 180 180 192
250 234 219 214 209 204 202 209 201 191 194 191 194 193 196 197 199 197 185 185 178 175 186 191 176 186 183 195 192 175 195 199
252 240 224 218 211 208 204 208 209 199 198 194 192 189 192 193 188 188 196 187 188 184 187 190 185 189 192 202 192 199 197 193
251 250 234 220 216 211 208 204 209 204 203 199 196 191 195 195 196 188 191 188 191 190 190 186 191 189 199 204 200 196 195 195
249 244 242 233 214 209 208 204 211 214 205 199 193 196 199 198 195 195 190 187 194 194 195 188 196 189 207 213 199 196 205 204
250 251 248 236 209 200 213 204 207 215 209 200 199 195 198 196 194 194 197 192 194 199 198 197 196 191 201 215 204 208 207 207
348 329 253 244 209 198 208 212 204 212 215 202 202 199 198 197 194 193 193 192 194 196 199 202 199 201 198 206 211 211 212 212
335 330 319 308 233 199 200 211 206 205 212 206 200 202 199 197 198 195 196 195 199 199 198 203 206 207 202 209 210 214 218 219
332 325 319 312 300 203 200 203 214 211 206 207 204 204 200 198 200 197 197 199 201 198 202 202 207 207 211 209 214 217 216 226
338 328 319 311 303 282 203 213 212 211 208 205 208 203 204 201 202 198 200 201 201 202 204 205 208 208 211 211 218 216 222 226
337 332 325 315 309 276 209 207 212 212 211 209 212 212 204 206 203 205 201 203 201 203 203 208 206 210 211 215 216 221 224 227
340 337 344 348 327 287 264 203 215 219 217 209 209 213 210 207 206 205 205 203 203 202 203 206 209 209 212 216 219 220 223 229
345 345 360 13 1 320 273 231 213 214 211 212 205 211 207 207 207 205 207 203 203 203 206 205 208 210 213 219 222 223 225 228
342 356 8 16 8 12 345 227 216 213 212 211 214 219 214 211 204 203 204 208 205 206 204 208 209 212 214 217 220 223 226 230
347 7 8 11 12 17 26 58 186 211 210 203 213 219 223 218 207 204 202 205 205 206 205 208 211 214 216 218 220 226 229 231
358 4 8 14 14 14 24 32 85 206 211 204 209 224 223 221 208 210 202 203 209 206 206 211 212 214 216 219 223 225 231 233
1 4 7 7 14 17 23 30 43 111 200 208 214 229 218 215 212 211 212 208 207 204 204 211 212 215 217 220 226 228 236 243
1 359 5 17 10 18 23 28 38 49 78 144 195 212 212 219 213 207 209 213 212 208 212 214 218 227 231 237 229 232 242 245
Height
1410 1415 1420 1426 1432 1438 1443 1446 1449 1455 1462 1466 1468 1474 1479 1483 1486 1486 1497 1503 1509 1515 1523 1529 1533 1538 1541 1545 1546 1550 1553 1556
1405 1408 1414 1419 1425 1431 1436 1438 1444 1450 1455 1461 1464 1467 1474 1480 1478 1486 1492 1501 1506 1513 1520 1524 1530 1535 1540 1542 1545 1547 1551 1553
1401 1402 1407 1412 1419 1424 1429 1432 1437 1442 1446 1456 1463 1467 1470 1476 1482 1483 1490 1498 1503 1510 1518 1522 1526 1532 1537 1538 1541 1544 1548 1551
1398 1398 1400 1406 1412 1418 1423 1425 1432 1437 1441 1449 1457 1466 1471 1474 1479 1480 1482 1493 1498 1506 1514 1519 1524 1529 1532 1534 1538 1541 1544 1549
1394 1393 1395 1399 1406 1414 1420 1422 1426 1433 1436 1441 1450 1455 1462 1468 1472 1479 1483 1489 1494 1502 1510 1515 1520 1526 1528 1531 1535 1539 1543 1546
1386 1388 1390 1392 1399 1408 1415 1418 1421 1427 1432 1437 1443 1450 1457 1464 1469 1474 1478 1485 1492 1499 1504 1510 1515 1521 1524 1527 1532 1536 1540 1544
1381 1383 1384 1387 1389 1399 1409 1414 1416 1421 1428 1433 1437 1442 1451 1457 1462 1467 1472 1480 1482 1495 1500 1505 1510 1516 1521 1524 1529 1532 1535 1539
1383 1380 1381 1380 1382 1389 1395 1406 1411 1414 1421 1427 1433 1437 1445 1451 1455 1461 1465 1473 1479 1484 1492 1497 1503 1510 1517 1521 1525 1528 1532 1535
1396 1389 1381 1379 1380 1382 1387 1395 1403 1407 1413 1418 1426 1434 1438 1446 1448 1455 1461 1465 1470 1476 1484 1492 1498 1504 1511 1515 1520 1524 1527 1531
1402 1391 1385 1378 1373 1372 1376 1385 1393 1400 1406 1413 1419 1427 1430 1438 1443 1448 1455 1462 1467 1473 1477 1484 1492 1499 1505 1510 1514 1518 1522 1525
1406 1394 1386 1379 1370 1368 1365 1376 1384 1392 1401 1405 1411 1418 1426 1433 1438 1440 1448 1456 1463 1468 1472 1478 1485 1493 1498 1504 1508 1513 1516 1519
1417 1405 1391 1380 1370 1361 1363 1368 1377 1385 1390 1398 1403 1410 1419 1429 1433 1435 1442 1449 1456 1462 1467 1472 1479 1485 1491 1497 1502 1506 1510 1513
1420 1408 1392 1377 1367 1359 1358 1361 1367 1373 1384 1390 1394 1400 1410 1418 1425 1430 1437 1443 1449 1457 1462 1467 1472 1478 1484 1489 1494 1500 1504 1506
1421 1410 1391 1378 1369 1360 1355 1357 1360 1367 1377 1383 1388 1395 1401 1408 1416 1422 1430 1437 1444 1450 1455 1460 1467 1472 1477 1481 1486 1492 1496 1499
1425 1407 1389 1381 1375 1365 1357 1354 1358 1362 1372 1376 1381 1387 1394 1401 1408 1415 1424 1428 1436 1443 1448 1454 1459 1465 1470 1476 1480 1485 1489 1492
1426 1400 1393 1386 1375 1364 1356 1352 1353 1361 1366 1369 1376 1384 1391 1396 1402 1407 1416 1422 1430 1435 1441 1447 1453 1459 1463 1469 1473 1477 1481 1484
1426 1404 1399 1388 1381 1372 1363 1354 1352 1357 1363 1366 1373 1377 1385 1390 1394 1399 1408 1412 1420 1429 1434 1441 1446 1451 1456 1461 1465 1469 1473 1477
1428 1419 1403 1401 1391 1386 1372 1365 1361 1354 1356 1358 1361 1372 1381 1384 1388 1392 1398 1404 1412 1418 1425 1434 1440 1444 1448 1453 1458 1462 1465 1469
1432 1431 1420 1403 1400 1394 1386 1374 1362 1359 1356 1358 1363 1369 1375 1379 1382 1386 1392 1397 1404 1411 1415 1420 1431 1437 1444 1449 1452 1456 1458 1461